Emporia, KS (66801)

9:29 PM CDT on September 01, 2015 (GMT -0500)
Timmerman School Area | | Change Station
CLOSE
Current Station
Personal Weather Station
Location: Emporia, KS
Elevation: 1214 ft
Nearby Weather Stations

Elev 1214 ft 38.43 °N, 96.22 °W | Updated 3 seconds ago

Clear
Clear
79.3 °F
Feels Like 78 °F
N
9.8
Wind Variable Wind from SE
Gusts 12.3 mph

Today
High -- | Low -- °F
--% Chance of Precip.
Yesterday
High -- | Low -- °F
Precip. -- in
6:53 AM 7:54 PM
Waning Gibbous, 84% visible
Pressure 29.96 in
Visibility 10.0 miles
Clouds Clear
Heat Index 78 °F
Dew Point 29 °F
Humidity 16%
Rainfall 0.00 in
Snow Depth Not available.
UV 0 out of 12
Pollen 11.20 out of 12
Air Quality Not available.
Flu Activity Not available.
METAR KEMP 020153Z AUTO 15010KT 10SM CLR 25/19 A2999 RMK AO2 SLP146 T02500189
Pressure 29.96 in
Visibility 10.0 miles
Clouds Clear
Heat Index 78 °F
Dew Point 29 °F
Humidity 16%
Rainfall 0.00 in
Snow Depth Not available.
UV 0 out of 12
Pollen 11.20 out of 12
Air Quality Not available.
Flu Activity Not available.
METAR KEMP 020153Z AUTO 15010KT 10SM CLR 25/19 A2999 RMK AO2 SLP146 T02500189

10-Day Weather Forecast

×

Almanac

Astronomy

Sep. 01, 2015 Rise Set
Actual Time
Civil Twilight
Nautical Twilight
Astronomical Twilight
Moon
Length of Visible Light
Length of Day
Tomorrow will be .
, % of the Moon is Illuminated

Today's Extremes

State Highs State Lows

Community

WunderPhotos

Upload Photos

1,851,679 photos uploaded!

WunderBlogs® & News

Nearby

Air Quality

  Air Quality AQ Index Pollutant
Not available.

Snow Depth

Station Depth Elevation

Earthquake Activity

City Distance Mag. Time & Date
Minimum magnitude displayed is 2.5.

Coastal Water Temperatures

Place Temperature

Stations

Nearby Weather Stations

Station Location Temp. Windchill Dew Point Humidity Wind Precip. Elev Updated Type